Weather History for KMMT - December, 2013

Change the Weather History Date:

Sunday, December 1, 2013

  Actual Average Record
Temperature  
Mean Temperature 50 °F -  
Max Temperature 60 °F 61 °F 78 °F (2001)
Min Temperature 40 °F 38 °F 28 °F (1999)
Degree Days  
Heating Degree Days 15    
Moisture  
Dew Point 39 °F    
Average Humidity 72    
Maximum Humidity 93    
Minimum Humidity 52    
Precipitation  
Precipitation 0.00 in - - ()
Sea Level Pressure  
Sea Level Pressure 30.20 in    
Wind  
Wind Speed 2 mph (North)    
Max Wind Speed 6 mph    
Max Gust Speed -    
Visibility 10 miles    
Events      
Averages and records for this station are not official NWS values.
T = Trace of Precipitation, MM = Missing Value Source: NWS Daily Summary

Daily Weather History Graph

Daily Weather History Graph

Search for Another Location

Airport or City:

Trip Planner

Search our weather history database for the weather conditions in past years. The results will help you decide how hot, cold, wet, or windy it might be!

Date:

Astronomy

Dec. 01, 2013 Rise Set
Actual Time 7:10 AM EST 5:14 PM EST
Civil Twilight 6:43 AM EST 5:41 PM EST
Nautical Twilight 6:12 AM EST 6:12 PM EST
Astronomical Twilight 5:42 AM EST 6:42 PM EST
Moon 5:30 AM EST (12/1) 4:19 PM EST (12/1)
Length of Visible Light 10h 58m
Length of Day
10h 03m
Waning Crescent, 2% of the Moon is Illuminated
Dec 1
Waning Crescent
Dec 2
New
Dec 9
First Quarter
Dec 17
Full
Dec 25
Last Quarter

Hourly Weather History & Observations

Time (EST) Temp. Windchill Dew Point Humidity Pressure Visibility Wind Dir Wind Speed Gust Speed Precip Events Conditions
12:28 AM 41.0 °F - 32.0 °F 70% 30.34 in 10.0 mi North 1.2 mph - N/A   Mostly Cloudy
12:38 AM 41.0 °F - 32.0 °F 70% 30.34 in 10.0 mi North 1.2 mph - N/A   Scattered Clouds
12:58 AM 40.1 °F 38.0 °F 32.9 °F 75% 30.34 in 10.0 mi North 3.5 mph - N/A   Partly Cloudy
1:58 AM 43.0 °F 41.3 °F 34.2 °F 71% 30.33 in 10.0 mi North 3.5 mph - N/A   Mostly Cloudy
2:58 AM 42.8 °F 41.1 °F 34.0 °F 71% 30.32 in 10.0 mi NNE 3.5 mph - N/A   Overcast
3:58 AM 41.7 °F 38.0 °F 33.8 °F 73% 30.30 in 10.0 mi NNW 5.8 mph - N/A   Mostly Cloudy
4:58 AM 43.2 °F 41.5 °F 34.2 °F 71% 30.29 in 10.0 mi NE 3.5 mph - N/A   Overcast
5:58 AM 42.8 °F 40.1 °F 34.0 °F 71% 30.29 in 10.0 mi Variable 4.6 mph - N/A   Overcast
6:58 AM 42.1 °F - 33.8 °F 72% 30.29 in 10.0 mi Variable 2.3 mph - N/A   Mostly Cloudy
7:58 AM 40.5 °F - 34.0 °F 78% 30.30 in 10.0 mi North 1.2 mph - N/A   Clear
8:58 AM 44.8 °F 43.3 °F 34.9 °F 68% 30.29 in 10.0 mi ENE 3.5 mph - N/A   Mostly Cloudy
9:58 AM 47.8 °F - 36.0 °F 63% 30.29 in 10.0 mi NE 2.3 mph - N/A   Mostly Cloudy
10:58 AM 52.9 °F - 37.4 °F 56% 30.28 in 10.0 mi Variable 1.2 mph - N/A   Mostly Cloudy
11:58 AM 54.9 °F - 38.3 °F 54% 30.24 in 10.0 mi WNW 2.3 mph - N/A   Mostly Cloudy
12:58 PM 57.4 °F - 39.9 °F 52% 30.18 in 10.0 mi Calm Calm - N/A   Mostly Cloudy
1:58 PM 59.2 °F - 41.4 °F 52% 30.15 in 10.0 mi Variable 2.3 mph - N/A   Mostly Cloudy
2:58 PM 60.1 °F - 42.3 °F 52% 30.13 in 10.0 mi NW 2.3 mph - N/A   Partly Cloudy
3:58 PM 59.5 °F - 42.6 °F 54% 30.11 in 10.0 mi Calm Calm - N/A   Clear
4:58 PM 57.7 °F - 43.3 °F 59% 30.10 in 10.0 mi Calm Calm - N/A   Scattered Clouds
5:58 PM 53.6 °F - 45.9 °F 75% 30.09 in 5.0 mi East 1.2 mph - N/A   Haze
6:58 PM 51.8 °F - 46.2 °F 81% 30.09 in 10.0 mi SE 2.3 mph - N/A   Mostly Cloudy
7:58 PM 48.9 °F - 46.0 °F 90% 30.08 in 4.0 mi East 2.3 mph - N/A   Mostly Cloudy
8:58 PM 48.2 °F - 45.3 °F 90% 30.07 in 8.0 mi Calm Calm - N/A   Partly Cloudy
9:58 PM 46.0 °F - 44.1 °F 93% 30.06 in 10.0 mi Calm Calm - N/A   Clear
10:58 PM 46.0 °F - 43.5 °F 91% 30.05 in 10.0 mi NW 2.3 mph - N/A   Mostly Cloudy
11:48 PM 48.2 °F - 46.4 °F 93% 30.03 in 10.0 mi NW 3.5 mph - N/A   Overcast
11:58 PM 48.2 °F - 46.0 °F 92% 30.03 in 10.0 mi NW 2.3 mph - N/A   Overcast